Regional Weather Roundup
Issued by NWS Upton, NY

Current Version | Previous Version | Graphics & Text | Print | Product List | Glossary Off
Versions: 1 2 3 4 5 6 7 8 9 10 11 12 13 14 15 16 17 18 19 20 21 22 23 24 25 26 27 28 29 30 31 32 33 34 35 36 37 38 39 40 41 42 43 44 45 46 47 48

000
ASUS41 KOKX 120405
RWROKX

REGIONAL WEATHER ROUNDUP
NATIONAL WEATHER SERVICE NEW YORK NY
1200 AM EDT SAT JUL 12 2014

NOTE: "FAIR" INDICATES FEW OR NO CLOUDS BELOW 12,000 FEET WITH NO
SIGNIFICANT WEATHER AND/OR OBSTRUCTIONS TO VISIBILITY.

NYZ071-072-176-178-NJZ106-104-120500-
NEW YORK CITY METRO AREA


CITY           SKY/WX    TMP DP  RH WIND       PRES   REMARKS
CENTRAL PARK   CLEAR     72  61  68 W5        30.25R
LAGUARDIA APRT PTCLDY    72  63  73 S5        30.22R
KENNEDY INTL   MOCLDY    68  65  90 S5        30.23S
NEWARK/LIBERTY MOCLDY    71  65  81 CALM      30.22R
BRNX BOT. GARD   N/A     68  61  77 E2        30.23R
TETERBORO      CLEAR     73  64  73 CALM      30.21R
$$

NYZ177-179-078>081-120500-
LONG ISLAND NEW YORK

CITY           SKY/WX    TMP DP  RH WIND       PRES   REMARKS
FARMINGDALE    CLEAR     68  64  87 W3        30.23R
ISLIP          CLEAR     70  61  73 CALM      30.21R
SHIRLEY        CLEAR     64  61  90 CALM      30.23R
WESTHAMPTON    CLEAR     60  57  89 CALM      30.24R
MONTAUK POINT    N/A     65  62  90 CALM      30.24R
$$

NYZ052-065-067-120500-
HUDSON VALLEY

CITY           SKY/WX    TMP DP  RH WIND       PRES   REMARKS
WHITE PLAINS   CLEAR     67  61  81 CALM      30.23R
NEWBURGH       CLEAR     68  63  83 CALM      30.24R
MONTGOMERY     CLEAR     64  62  93 CALM      30.22R
POUGHKEEPSIE   CLEAR     67  62  84 CALM      30.21R
ALBANY         CLEAR     64  57  78 CALM      30.22R
$$

NJZ001-105-106-008-010-013-015-019>022-104-120500-
NEW JERSEY

CITY           SKY/WX    TMP DP  RH WIND       PRES   REMARKS
NEWARK/LIBERTY MOCLDY    71  65  81 CALM      30.22R
TETERBORO      CLEAR     73  64  73 CALM      30.21R
CALDWELL       CLEAR     70  63  78 CALM      30.24R
MORRISTOWN     PTCLDY    68  64  88 CALM      30.23S
SOMERVILLE     PTCLDY    70  62  76 CALM      30.21R
LINDEN         FAIR      73  66  77 CALM      30.24S
SUSSEX         CLEAR     66  63  90 CALM      30.23R
ANDOVER          N/A     64  62  93 CALM      30.24R
TRENTON        MOCLDY    73  62  68 S7        30.22S
MILLVILLE      CLOUDY    67  66  97 CALM      30.23R
ATLANTIC CITY  PTCLDY    67  64  90 CALM      30.23R
WRIGHTSTOWN    MOCLDY    69  64  83 S3        30.21S
TOMS RIVER     PTCLDY    64  61  88 CALM      30.23S
BELMAR         PTCLDY    68  64  88 CALM      30.23R
$$

PAZ047>061-062-071-120500-
EASTERN PENNSYLVANIA

CITY           SKY/WX    TMP DP  RH WIND       PRES   REMARKS
PHILADELPHIA   MOCLDY    75  61  61 S5        30.23R
ALLENTOWN      CLEAR     75  64  68 S5        30.23R
SCRANTON       CLEAR     67  59  75 E6        30.24R
$$

CTZ002-004>006-009-010-012-RIZ004-006-007-MAZ004-011-015-120500-
SOUTHERN NEW ENGLAND
 IN CT

CITY           SKY/WX    TMP DP  RH WIND       PRES   REMARKS
BRADLEY INTL   CLEAR     66  57  72 W3        30.21R
HARTFORD       CLEAR     68  63  84 S3        30.22R
DANBURY        CLEAR     65  60  84 SW3       30.25R
WTRBRY/OXFORD  CLEAR     64  57  77 CALM      30.26S
BRIDGEPORT     CLEAR     72  65  78 SW5       30.22R
MERIDEN        CLOUDY    66  63  90 CALM      30.23R
NEW HAVEN      CLOUDY    69  63  81 CALM      30.23R
CHESTER        FAIR      64  63  94 CALM      30.24S
GROTON         CLEAR     63  62  97 CALM      30.22S
WILLIMANTIC    CLEAR     64  59  83 CALM      30.24R

 IN RI

CITY           SKY/WX    TMP DP  RH WIND       PRES   REMARKS
PROVIDENCE     PTCLDY    66  57  72 SW3       30.23S
BLOCK ISLAND   CLOUDY    64  61  88 CALM      30.23S VSB<1/4
WESTERLY       CLEAR     63  60  90 CALM      30.24R

 IN MA

CITY           SKY/WX    TMP DP  RH WIND       PRES   REMARKS
BOSTON         PTCLDY    64  58  80 CALM      30.22S
WORCESTER      CLEAR     63  57  81 SW7       30.24S
WESTFIELD      NOT AVBL
PROVINCETOWN   CLEAR     61  57  88 S5        30.22F
NANTUCKET      CLEAR     60  58  92 NE3       30.22S
$$

ANZ330-335-338-340-345-350-353-355-120500-
COASTAL MARINE OBSERVATIONS


STATION/POSITION TIME  SKY/WX   TEMP    WIND        PRES    VSBY  WAVE
                                AIR SEA DIR/SP/G                  HT/PER
                 (UTC)          (F)     (DEG/KT/KT) (MB)    (MI)  (FT/S)
NY HARB ENTRANCE NOT AVBL
4S FIRE IS       0300               69                N/A           2/ 6
23SW MTP         0400            65 67              1023.0          2/ 7
HUDSON CANYON    0400            69 70   50/  4/  6 1022.8          2/ 7
EXECUTION ROCKS  0400            69 68  220/  2/  2   N/A
WESTERN LI SOUND 0400            71     220/  2/  2   N/A           0
CENTRAL LI SOUND 0300            70 71  230/  2/  4   N/A           1
EASTERN LI SOUND 0300            66 65   70/  4/  6   N/A
ROBBINS REEF     0400            66     160/  6/  7   N/A
$$


>>>>>>>>>>>>>>>>>>>>>>>>>>>> KEY <<<<<<<<<<<<<<<<<<<<<<<<<<<
>                                                          <
>     SKY/WX - SKY CONDITION/PRESENT WEATHER               <
>     TMP    - TEMPERATURE IN FAHRENHEIT                   <
>     DP     - DEWPOINT IN FAHRENHEIT                      <
>     RH     - RELATIVE HUMIDITY IN PERCENT                <
>     WIND   - DIRECTION AND SPEED IN MPH                  <
>     PRES   - MEAN SEA LEVEL PRESSURE IN INCHES OF HG     <
>     WCI    - WIND CHILL INDEX                            <
>     VSB    - VISIBILITY IN MILES                         <
>     HX     - HEAT INDEX                                  <
>     TC     - TEMPERATURE IN CELSIUS                      <
>     VRB    - VARIABLE WIND DIRECTION                     <
>                                                          <
>>>>>>>>>>>>>>>>>>>>>>>>>>>> KEY <<<<<<<<<<<<<<<<<<<<<<<<<<<





USA.gov is the U.S. government's official web portal to all federal, state and local government web resources and services.